Flag for U.S.A. Weather past 2 weeks in Rockford, Illinois, U.S.A.

Now
67 °F

Overcast.


Feels Like: 67 °F
Forecast: 62 / 80 °F
Wind: 6 mph from Northeast

Location: Greater Rockford Airport

Current Time: Aug 30, 2015 at 1:46:53 AM

Latest Report: Aug 30, 2015 at 12:54 AM


Visibility: 8 mi

Pressure: 30.05 "Hg

Humidity: 87%

Dew point: 63 °F

Location of RockfordLocation

Historic Weather in Rockford — Graph

°F

Rockford temperature yesterday

Maximum temperature yesterday: 72 °F (at 4:54 PM)
Minimum temperature yesterday: 62 °F (at 4:54 AM)
Average temperature yesterday: 67 °F

Past Weeks' High & Low Weather Summary

 TemperatureHumidityPressure
High91 °F (Aug 15, 1:54 PM)93% (Aug 18, 2:54 AM)30.24 "Hg (Aug 18, 2:54 AM)
Low51 °F (Aug 27, 6:54 AM)39% (Aug 20, 3:54 PM)29.59 "Hg (Aug 19, 4:54 AM)
Average69 °F71%30.00 "Hg
* Reported Aug 14 11:54 PM — Aug 29 11:54 PM, Rockford, Weather by CustomWeather, © 2015

Note: Actual official high and low records may vary slightly from our data, if they occured in-between our weather recording intervals... More about our weather records

Advertising

Rockford weather history for previous 24 hours

 ConditionsComfort  
Time TempWeatherWind HumidityBarometerVisibility
11:54 PM
Sat, Aug 29
67 °FOvercast.3 mph87%30.04 "Hg7 mi
10:54 PM67 °FOvercast.5 mph87%30.05 "Hg7 mi
9:54 PM68 °FMostly cloudy.5 mph84%30.06 "Hg7 mi
8:54 PM68 °FDrizzle. Fog.7 mph87%30.05 "Hg6 mi
7:54 PM69 °FDrizzle. Overcast.7 mph84%30.03 "Hg7 mi
6:54 PM71 °FOvercast.5 mph78%30.01 "Hg10 mi
5:54 PM72 °FOvercast.5 mph76%30.01 "Hg10 mi
4:54 PM72 °FOvercast.3 mph76%30.01 "Hg10 mi
3:54 PM71 °FOvercast.5 mph78%30.01 "Hg10 mi
2:54 PM70 °FOvercast.5 mph81%30.02 "Hg10 mi
1:54 PM70 °FOvercast.3 mph81%30.02 "Hg10 mi
12:54 PM70 °FOvercast.3 mph81%30.01 "Hg8 mi
11:54 AM68 °FMostly cloudy.9 mph87%30.02 "Hg8 mi
11:01 AM66 °FMore clouds than sun.5 mph87%30.04 "Hg7 mi
9:54 AM64 °FFog.7 mph90%30.03 "Hg2 mi
8:54 AM64 °FThunderstorms. Fog.8 mph90%30.02 "Hg2 mi
7:54 AM64 °FLight rain. Fog.6 mph90%30.03 "Hg2 mi
6:54 AM64 °FLight rain. Fog.7 mph90%30.02 "Hg6 mi
5:54 AM64 °FOvercast.14 mph90%29.98 "Hg10 mi
4:54 AM62 °FHeavy rain. Fog.14 mph93%30.00 "Hg3 mi
3:54 AM64 °FRain. Fog.12 mph90%30.03 "Hg3 mi
1:54 AM65 °FLight rain. Fog.10 mph91%30.04 "Hg6 mi
Weather by CustomWeather, © 2015

See weather overviewHow to use our weather pages